Location: Peyton Hall Observatory
(40.3466°N, 74.6516°W)
Time: 01:21:28
(UTC-04:00)

ISS - All Passes

Search period start: 29 March 2017 00:00
Search period end: 08 April 2017 00:00
Orbit: 399 x 409 km, 51.6° (Epoch: 29 March)

Date Brightness Start Highest point End Pass type
(mag) Time Alt. Az. Time Alt. Az. Time Alt. Az.
29 Mar - 00:25:07 10° NNW 00:26:47 13° N 00:28:27 10° NE night (unlit)
29 Mar - 02:00:55 10° NW 02:04:00 35° NNE 02:07:04 10° E night (unlit)
29 Mar - 03:37:33 10° WNW 03:40:23 26° SW 03:43:12 10° SSE night (unlit)
29 Mar - 18:42:11 10° SSE 18:43:33 12° SE 18:44:55 10° ESE daylight
29 Mar - 20:16:22 10° WSW 20:19:36 70° NW 20:22:52 10° NE visible
29 Mar - 21:54:22 10° WNW 21:56:33 16° NNW 21:58:45 10° NNE visible
29 Mar - 23:32:46 10° NNW 23:34:05 12° N 23:35:23 10° NNE night (unlit)
30 Mar - 01:08:44 10° NNW 01:11:28 23° NNE 01:14:12 10° E night (unlit)
30 Mar - 02:44:54 10° WNW 02:48:07 53° SW 02:51:20 10° SE night (unlit)
30 Mar - 19:24:03 10° SW 19:27:14 59° SE 19:30:28 10° ENE daylight
30 Mar - 21:01:19 10° WNW 21:03:57 22° NNW 21:06:35 10° NNE visible
30 Mar - 22:40:06 10° NNW 22:41:22 12° N 22:42:37 10° NNE visible
31 Mar - 00:16:34 10° NNW 00:18:51 17° NNE 00:21:09 10° ENE night (unlit)
31 Mar - 01:52:28 10° NW 01:55:46 78° NE 01:59:03 10° ESE night (unlit)
31 Mar - 03:30:47 10° WSW 03:31:48 11° SW 03:32:48 10° SSW night (unlit)
31 Mar - 18:32:06 10° SSW 18:34:58 29° SE 18:37:50 10° ENE daylight
31 Mar - 20:08:24 10° W 20:11:23 32° NNW 20:14:23 10° NE visible
31 Mar - 21:47:04 10° NW 21:48:37 13° N 21:50:11 10° NNE visible
31 Mar - 23:24:23 10° NNW 23:26:11 14° NNE 23:27:59 10° NE night (unlit)
01 Apr - 01:00:10 10° NW 01:03:20 42° NNE 01:06:28 10° ESE night (unlit)
01 Apr - 02:37:02 10° W 02:39:36 21° SW 02:42:12 10° S night (unlit)
01 Apr - 17:40:46 10° SSE 17:42:45 15° SE 17:44:43 10° E daylight
01 Apr - 19:15:41 10° WSW 19:18:53 56° NNW 19:22:06 10° NE daylight
01 Apr - 20:53:54 10° NW 20:55:55 15° NNW 20:57:56 10° NNE visible
01 Apr - 22:32:04 10° NNW 22:33:27 12° N 22:34:51 10° NNE visible
02 Apr - 00:07:56 10° NW 00:10:47 26° NNE 00:13:38 10° E night (unlit)
02 Apr - 01:44:13 10° WNW 01:47:20 41° SW 01:50:28 10° SSE night (unlit)
02 Apr - 18:23:14 10° SW 18:26:28 76° SE 18:29:43 10° NE daylight
02 Apr - 20:00:46 10° WNW 20:03:14 20° NNW 20:05:44 10° NNE visible
02 Apr - 21:39:29 10° NNW 21:40:41 12° N 21:41:54 10° NNE visible
02 Apr - 23:15:44 10° NNW 23:18:10 19° NNE 23:20:36 10° ENE visible
03 Apr - 00:51:41 10° NW 00:54:59 85° SW 00:58:16 10° SE night (unlit)
03 Apr - 17:31:06 10° SSW 17:34:06 36° SE 17:37:08 10° ENE daylight
03 Apr - 19:07:45 10° W 19:10:37 28° NNW 19:13:30 10° NE daylight
03 Apr - 20:46:30 10° NNW 20:47:55 12° N 20:49:20 10° NNE visible
03 Apr - 22:23:31 10° NNW 22:25:28 15° NNE 22:27:25 10° NE visible
03 Apr - 23:59:19 10° NW 00:02:31 51° NNE 00:05:44 10° ESE night (unlit)
04 Apr - 01:36:28 10° W 01:38:43 17° SW 01:40:58 10° S night (unlit)
04 Apr - 16:39:28 10° S 16:41:49 19° SE 16:44:12 10° E daylight
04 Apr - 18:14:55 10° WSW 18:18:04 45° NNW 18:21:13 10° NE daylight
04 Apr - 19:53:19 10° NW 19:55:10 14° NNW 19:57:00 10° NNE visible
04 Apr - 21:31:13 10° NNW 21:32:43 12° N 21:34:12 10° NE visible
04 Apr - 23:07:01 10° NW 23:09:59 30° NNE 23:12:56 10° E visible
05 Apr - 00:43:27 10° WNW 00:46:26 33° SW 00:49:26 10° SSE night (unlit)
05 Apr - 17:22:20 10° SW 17:25:35 86° NNW 17:28:50 10° NE daylight
05 Apr - 19:00:06 10° WNW 19:02:25 18° NNW 19:04:45 10° NNE daylight
05 Apr - 20:38:42 10° NNW 20:39:55 12° N 20:41:07 10° NNE visible
05 Apr - 22:14:46 10° NNW 22:17:20 21° NNE 22:19:54 10° ENE visible
05 Apr - 23:50:48 10° WNW 23:54:04 67° SW 23:57:19 10° SE night (unlit)
06 Apr - 16:30:03 10° SSW 16:33:09 46° SE 16:36:17 10° ENE daylight
06 Apr - 18:07:00 10° W 18:09:45 24° NNW 18:12:30 10° NNE daylight
06 Apr - 19:45:48 10° NNW 19:47:06 12° N 19:48:24 10° NNE daylight
06 Apr - 21:22:31 10° NNW 21:24:38 16° NNE 21:26:44 10° NE visible
06 Apr - 22:58:21 10° NW 23:01:36 62° NE 23:04:51 10° ESE visible
07 Apr - 00:35:56 10° W 00:37:43 14° SW 00:39:28 10° SSW night (unlit)
07 Apr - 15:38:10 10° S 15:40:48 23° SE 15:43:27 10° ENE daylight
07 Apr - 17:14:04 10° W 17:17:08 38° NNW 17:20:12 10° NE daylight
07 Apr - 18:52:37 10° NW 18:54:18 13° N 18:55:58 10° NNE daylight
07 Apr - 20:30:14 10° NNW 20:31:51 13° N 20:33:28 10° NE visible
07 Apr - 22:05:59 10° NW 22:09:02 35° NNE 22:12:06 10° E visible
07 Apr - 23:42:37 10° WNW 23:45:25 26° SW 23:48:13 10° SSE night (unlit)
